Weather in Lamidanda

Nepal     27°14′56″N   86°41′24″E
temp.,
°C
wind,
m/s
gust,
m/s
humid.,
%
clouds,
%
prec.,
mm/h
press.,
hPa
HPBL,
m
15 april, thu
thu1523:45+18ne432215 0.0 101340
02:45+17ne43230 0.0 101234
05:45+16ne43225 0.0 101234
08:45+26sw331465 0.0 10131930
11:45+29sw451196 0.0 10103519
14:45+30sw4411100 0.0 10063747
17:45+26wsw3314100 0.0 100680
20:45+20ne3320100 0.0 101028
16 april, fri
fri1623:45+19ne4321100 0.0 101040
02:45+18ne4321100 0.0 100939
05:45+18ne432185 0.0 101036
08:45+27ssw2213100 0.0 10111482
11:45+30sw4512100 0.0 10093576
14:45+30sw551477 0.0 10063913
17:45+21nne563216 0.1 1009322
20:45+18ne55365 0.0 101157
17 april, sat
sat1723:45+18ne442941 0.0 101149
02:45+18ne332789 0.0 101033
05:45+17ne43292 0.0 101240
08:45+26ssw32191 0.0 10121460
11:45+30ssw571712 0.0 10093190
14:45+29ssw562187 0.1 10073398
17:45+17ne566536 2.0 1012158
20:45+18ne45565 0.2 101262
18 april, sun
sun1823:45+17ne43471 0.2 101339
02:45+16ne33454 0.0 101124
05:45+16ne334639 0.1 101332
08:45+24sw34321 0.1 10121430
11:45+28ssw662711 0.1 10092591
14:45+26sw793486 0.4 10062899
17:45+22n344212 2.4 1007567
20:45+16ne44544 0.4 101160
19 april, mon
mon1923:45+16ne44464 0.4 101142
02:45+15ne33460 0.0 101032
05:45+14ne33450 0.0 101033
08:45+24ssw23270 0.0 10091458
11:45+28sw56214 0.0 10073083
14:45+27sw552862 0.0 10052768
17:45+23nne2338100 0.4 1005416
20:45+17ne44608 0.3 100960